Time,TemperatureF,DewpointF,PressureIn,WindDirection,WindDirectionDegrees,WindSpeedMPH,WindSpeedGustMPH,Humidity,HourlyPrecipIn,Conditions,Clouds,dailyrainin,SoftwareType,DateUTC
2013-07-10 03:35:00,73.4,67.6,29.99,SSE,164,1.0,1.0,82,0.00,,SKC,0.00,VWS V14.01,2013-07-10 08:35:00,
2013-07-10 03:40:00,73.3,67.5,29.99,South,169,5.0,5.0,82,0.00,,SKC,0.00,VWS V14.01,2013-07-10 08:40:00,
2013-07-10 03:45:00,73.1,67.3,29.99,South,186,2.0,4.0,82,0.00,,SKC,0.00,VWS V14.01,2013-07-10 08:45:00,
2013-07-10 03:50:00,72.9,67.1,29.99,South,180,1.0,4.0,82,0.00,,SKC,0.00,VWS V14.01,2013-07-10 08:50:00,
2013-07-10 03:55:00,72.7,67.2,29.99,South,169,2.0,4.0,83,0.00,,SKC,0.00,VWS V14.01,2013-07-10 08:55:00,
2013-07-10 04:00:00,72.5,67.1,29.99,South,169,2.0,3.0,83,0.00,,SKC,0.00,VWS V14.01,2013-07-10 09:00:00,
2013-07-10 04:05:00,72.4,66.9,29.99,SSE,158,4.0,6.0,83,0.00,,SKC,0.00,VWS V14.01,2013-07-10 09:05:00,
2013-07-10 04:10:00,72.4,66.9,29.99,South,191,5.0,9.0,83,0.00,,SKC,0.00,VWS V14.01,2013-07-10 09:10:00,
2013-07-10 04:15:00,72.4,67.3,29.99,South,182,2.0,2.0,84,0.00,,SKC,0.00,VWS V14.01,2013-07-10 09:15:00,
2013-07-10 04:20:00,72.2,67.1,30.00,South,174,4.0,4.0,84,0.00,,SKC,0.00,VWS V14.01,2013-07-10 09:20:00,
2013-07-10 04:25:00,72.0,66.6,29.99,South,173,4.0,5.0,83,0.00,,SKC,0.00,VWS V14.01,2013-07-10 09:25:00,
2013-07-10 04:30:00,72.0,66.9,29.99,SSW,192,4.0,5.0,84,0.00,,SKC,0.00,VWS V14.01,2013-07-10 09:30:00,
2013-07-10 04:35:00,71.9,66.8,30.00,SSW,194,6.0,7.0,84,0.00,,SKC,0.00,VWS V14.01,2013-07-10 09:35:00,
2013-07-10 04:40:00,71.9,66.8,30.00,South,169,4.0,5.0,84,0.00,,SKC,0.00,VWS V14.01,2013-07-10 09:40:00,
2013-07-10 04:45:00,71.8,66.7,29.99,North,360,4.0,5.0,84,0.00,,SKC,0.00,VWS V14.01,2013-07-10 09:45:00,
2013-07-10 04:50:00,71.7,66.6,29.99,South,183,2.0,4.0,84,0.00,,SKC,0.00,VWS V14.01,2013-07-10 09:50:00,
2013-07-10 04:55:00,71.5,66.4,29.99,South,183,3.0,3.0,84,0.00,,SKC,0.00,VWS V14.01,2013-07-10 09:55:00,
2013-07-10 05:00:00,71.4,66.3,29.99,South,186,2.0,3.0,84,0.00,,SKC,0.00,VWS V14.01,2013-07-10 10:00:00,
2013-07-10 05:05:00,71.3,66.6,29.99,South,179,2.0,2.0,85,0.00,,SKC,0.00,VWS V14.01,2013-07-10 10:05:00,
2013-07-10 05:10:00,71.2,66.5,30.00,South,180,3.0,3.0,85,0.00,,SKC,0.00,VWS V14.01,2013-07-10 10:10:00,
2013-07-10 05:15:00,71.2,66.5,29.99,South,180,2.0,3.0,85,0.00,,SKC,0.00,VWS V14.01,2013-07-10 10:15:00,
2013-07-10 05:20:00,71.1,66.4,30.00,South,180,2.0,3.0,85,0.00,,SKC,0.00,VWS V14.01,2013-07-10 10:20:00,
2013-07-10 05:25:00,70.9,66.2,30.00,South,180,1.0,2.0,85,0.00,,SKC,0.00,VWS V14.01,2013-07-10 10:25:00,
2013-07-10 05:30:00,70.7,66.0,30.00,South,180,3.0,3.0,85,0.00,,SKC,0.00,VWS V14.01,2013-07-10 10:30:00,
2013-07-10 05:35:00,70.6,65.9,30.00,South,180,0.0,3.0,85,0.00,,SKC,0.00,VWS V14.01,2013-07-10 10:35:00,
2013-07-10 05:40:00,70.5,66.1,30.00,South,180,1.0,2.0,86,0.00,,SKC,0.00,VWS V14.01,2013-07-10 10:40:00,
2013-07-10 05:45:00,70.5,66.1,30.00,South,180,2.0,2.0,86,0.00,,SKC,0.00,VWS V14.01,2013-07-10 10:45:00,
2013-07-10 05:50:00,70.4,66.0,30.00,South,180,3.0,3.0,86,0.00,,SKC,0.00,VWS V14.01,2013-07-10 10:50:00,
2013-07-10 05:55:00,70.4,66.0,30.00,South,180,1.0,2.0,86,0.00,,SKC,0.00,VWS V14.01,2013-07-10 10:55:00,
2013-07-10 06:00:00,70.3,65.9,30.00,South,180,2.0,3.0,86,0.00,,SKC,0.00,VWS V14.01,2013-07-10 11:00:00,
2013-07-10 06:05:00,70.2,65.8,30.00,South,180,1.0,1.0,86,0.00,,SKC,0.00,VWS V14.01,2013-07-10 11:05:00,
2013-07-10 06:10:00,70.0,65.6,30.00,South,180,0.0,2.0,86,0.00,,SKC,0.00,VWS V14.01,2013-07-10 11:10:00,
2013-07-10 06:15:00,70.0,66.0,30.00,South,180,1.0,2.0,87,0.00,,SKC,0.00,VWS V14.01,2013-07-10 11:15:00,
2013-07-10 06:20:00,69.9,65.9,30.00,South,180,0.0,0.0,87,0.00,,SKC,0.00,VWS V14.01,2013-07-10 11:20:00,
2013-07-10 06:25:00,69.8,65.8,30.00,South,180,0.0,0.0,87,0.00,,SKC,0.00,VWS V14.01,2013-07-10 11:25:00,
2013-07-10 06:30:00,69.7,65.7,30.00,South,180,0.0,0.0,87,0.00,,SKC,0.00,VWS V14.01,2013-07-10 11:30:00,
2013-07-10 06:35:00,69.6,65.6,30.00,South,180,0.0,0.0,87,0.00,,SKC,0.00,VWS V14.01,2013-07-10 11:35:00,
2013-07-10 06:40:00,69.5,65.5,30.00,South,180,0.0,0.0,87,0.00,,SKC,0.00,VWS V14.01,2013-07-10 11:40:00,
2013-07-10 06:45:00,69.5,65.5,30.01,South,180,0.0,0.0,87,0.00,,SKC,0.00,VWS V14.01,2013-07-10 11:45:00,
2013-07-10 06:50:00,69.5,65.5,30.00,South,180,0.0,0.0,87,0.00,,SKC,0.00,VWS V14.01,2013-07-10 11:50:00,
2013-07-10 06:55:00,69.6,65.6,30.01,South,180,3.0,3.0,87,0.00,,SKC,0.00,VWS V14.01,2013-07-10 11:55:00,
2013-07-10 07:00:00,69.8,65.8,30.01,South,180,1.0,1.0,87,0.00,,SKC,0.00,VWS V14.01,2013-07-10 12:00:00,
2013-07-10 07:05:00,69.9,65.9,30.01,South,180,1.0,3.0,87,0.00,,SKC,0.00,VWS V14.01,2013-07-10 12:05:00,
2013-07-10 07:10:00,70.1,66.1,30.01,South,180,2.0,2.0,87,0.00,,SKC,0.00,VWS V14.01,2013-07-10 12:10:00,
2013-07-10 07:15:00,70.3,66.2,30.01,South,186,3.0,3.0,87,0.00,,SKC,0.00,VWS V14.01,2013-07-10 12:15:00,
2013-07-10 07:20:00,70.4,66.3,30.01,South,183,1.0,3.0,87,0.00,,SKC,0.00,VWS V14.01,2013-07-10 12:20:00,
2013-07-10 07:25:00,70.5,66.4,30.01,South,175,3.0,5.0,87,0.00,,SKC,0.00,VWS V14.01,2013-07-10 12:25:00,
2013-07-10 07:30:00,70.7,66.7,30.00,South,186,5.0,6.0,87,0.00,,SKC,0.00,VWS V14.01,2013-07-10 12:30:00,
2013-07-10 07:35:00,71.0,66.9,30.01,South,173,2.0,5.0,87,0.00,,SKC,0.00,VWS V14.01,2013-07-10 12:35:00,
2013-07-10 07:40:00,71.3,67.2,30.01,South,187,3.0,4.0,87,0.00,,SKC,0.00,VWS V14.01,2013-07-10 12:40:00,
2013-07-10 07:45:00,71.4,67.3,30.01,SSW,194,5.0,6.0,87,0.00,,SKC,0.00,VWS V14.01,2013-07-10 12:45:00,
2013-07-10 07:50:00,71.5,67.4,30.01,South,186,4.0,5.0,87,0.00,,SKC,0.00,VWS V14.01,2013-07-10 12:50:00,
2013-07-10 07:55:00,71.6,67.5,30.01,SSW,198,4.0,9.0,87,0.00,,SKC,0.00,VWS V14.01,2013-07-10 12:55:00,
2013-07-10 08:00:00,71.7,67.6,30.01,SSE,148,3.0,6.0,87,0.00,,SKC,0.00,VWS V14.01,2013-07-10 13:00:00,
2013-07-10 08:05:00,71.8,67.7,30.02,SSW,209,11.0,11.0,87,0.00,,SKC,0.00,VWS V14.01,2013-07-10 13:05:00,
2013-07-10 08:10:00,71.9,67.8,30.02,SSW,198,5.0,5.0,87,0.00,,SKC,0.00,VWS V14.01,2013-07-10 13:10:00,
2013-07-10 08:15:00,72.0,67.9,30.02,South,184,12.0,16.0,87,0.00,,SKC,0.00,VWS V14.01,2013-07-10 13:15:00,
2013-07-10 08:20:00,72.2,68.1,30.01,SSW,192,9.0,9.0,87,0.00,,SKC,0.00,VWS V14.01,2013-07-10 13:20:00,
2013-07-10 08:25:00,72.5,68.4,30.02,South,190,5.0,6.0,87,0.00,,SKC,0.00,VWS V14.01,2013-07-10 13:25:00,
2013-07-10 08:30:00,73.0,68.9,30.02,SSW,200,5.0,7.0,87,0.00,,SKC,0.00,VWS V14.01,2013-07-10 13:30:00,
2013-07-10 08:35:00,73.7,69.3,30.02,SSW,194,6.0,11.0,86,0.00,,SKC,0.00,VWS V14.01,2013-07-10 13:35:00,
2013-07-10 08:40:00,74.2,69.4,30.02,SW,227,7.0,7.0,85,0.00,,SKC,0.00,VWS V14.01,2013-07-10 13:40:00,
2013-07-10 08:45:00,74.8,69.7,30.02,SSW,201,9.0,10.0,84,0.00,,SKC,0.00,VWS V14.01,2013-07-10 13:45:00,
2013-07-10 08:50:00,74.9,69.4,30.02,SSW,198,9.0,10.0,83,0.00,,SKC,0.00,VWS V14.01,2013-07-10 13:50:00,
2013-07-10 08:55:00,75.4,69.5,30.02,South,169,7.0,11.0,82,0.00,,SKC,0.00,VWS V14.01,2013-07-10 13:55:00,
2013-07-10 09:00:00,76.0,69.4,30.02,SE,146,6.0,7.0,80,0.00,,SKC,0.00,VWS V14.01,2013-07-10 14:00:00,
2013-07-10 09:05:00,76.3,69.7,30.02,SSW,200,5.0,10.0,80,0.00,,SKC,0.00,VWS V14.01,2013-07-10 14:05:00,
2013-07-10 09:10:00,76.9,69.5,30.02,SW,223,10.0,10.0,78,0.00,,SKC,0.00,VWS V14.01,2013-07-10 14:10:00,
2013-07-10 09:15:00,76.8,69.1,30.02,SSW,202,8.0,12.0,77,0.00,,SKC,0.00,VWS V14.01,2013-07-10 14:15:00,
2013-07-10 09:20:00,76.3,68.9,30.02,SW,220,6.0,9.0,78,0.00,,SKC,0.00,VWS V14.01,2013-07-10 14:20:00,
2013-07-10 09:25:00,76.4,69.0,30.02,WSW,245,4.0,6.0,78,0.00,,SKC,0.00,VWS V14.01,2013-07-10 14:25:00,
2013-07-10 09:30:00,76.4,69.0,30.02,SW,222,12.0,12.0,78,0.00,,SKC,0.00,VWS V14.01,2013-07-10 14:30:00,
2013-07-10 09:35:00,76.5,69.1,30.02,SSW,200,14.0,14.0,78,0.00,,SKC,0.00,VWS V14.01,2013-07-10 14:35:00,
2013-07-10 09:40:00,76.4,68.7,30.02,SSW,203,2.0,4.0,77,0.00,,SKC,0.00,VWS V14.01,2013-07-10 14:40:00,
2013-07-10 09:45:00,77.0,68.9,30.02,SSW,193,13.0,13.0,76,0.00,,SKC,0.00,VWS V14.01,2013-07-10 14:45:00,
2013-07-10 09:50:00,77.8,68.9,30.02,SSW,200,6.0,11.0,74,0.00,,SKC,0.00,VWS V14.01,2013-07-10 14:50:00,
2013-07-10 09:55:00,78.8,69.8,30.02,SSW,192,11.0,11.0,74,0.00,,SKC,0.00,VWS V14.01,2013-07-10 14:55:00,
2013-07-10 10:00:00,79.3,69.1,30.01,SSW,196,14.0,17.0,71,0.00,,SKC,0.00,VWS V14.01,2013-07-10 15:00:00,
2013-07-10 10:05:00,79.1,69.3,30.01,SSW,200,12.0,16.0,72,0.00,,SKC,0.00,VWS V14.01,2013-07-10 15:05:00,
2013-07-10 10:10:00,79.4,68.8,30.01,South,176,10.0,12.0,70,0.00,,SKC,0.00,VWS V14.01,2013-07-10 15:10:00,
2013-07-10 10:15:00,79.7,69.1,30.00,SSW,196,17.0,17.0,70,0.00,,SKC,0.00,VWS V14.01,2013-07-10 15:15:00,
2013-07-10 10:20:00,80.0,69.3,30.01,SSE,161,6.0,10.0,70,0.00,,SKC,0.00,VWS V14.01,2013-07-10 15:20:00,
2013-07-10 10:25:00,80.7,69.2,30.00,SSW,207,9.0,16.0,68,0.00,,SKC,0.00,VWS V14.01,2013-07-10 15:25:00,
2013-07-10 10:30:00,80.5,69.0,30.00,South,173,6.0,11.0,68,0.00,,SKC,0.00,VWS V14.01,2013-07-10 15:30:00,
2013-07-10 10:35:00,80.9,69.4,30.00,WSW,252,3.0,7.0,68,0.00,,SKC,0.00,VWS V14.01,2013-07-10 15:35:00,
2013-07-10 10:40:00,81.2,68.3,30.00,South,184,4.0,9.0,65,0.00,,SKC,0.00,VWS V14.01,2013-07-10 15:40:00,
2013-07-10 10:45:00,81.8,68.4,30.01,SSW,192,9.0,13.0,64,0.00,,SKC,0.00,VWS V14.01,2013-07-10 15:45:00,
2013-07-10 10:50:00,81.9,69.0,30.01,South,186,9.0,13.0,65,0.00,,SKC,0.00,VWS V14.01,2013-07-10 15:50:00,
2013-07-10 10:55:00,82.0,69.1,30.01,SSW,211,1.0,5.0,65,0.00,,SKC,0.00,VWS V14.01,2013-07-10 15:55:00,
2013-07-10 11:00:00,82.9,69.0,30.01,South,179,6.0,7.0,63,0.00,,SKC,0.00,VWS V14.01,2013-07-10 16:00:00,
2013-07-10 11:05:00,83.2,69.8,30.01,SSW,210,6.0,7.0,64,0.00,,SKC,0.00,VWS V14.01,2013-07-10 16:05:00,
2013-07-10 11:10:00,84.0,69.1,30.00,SW,229,4.0,8.0,61,0.00,,SKC,0.00,VWS V14.01,2013-07-10 16:10:00,
2013-07-10 11:15:00,84.3,68.4,30.00,SSW,196,7.0,11.0,59,0.00,,SKC,0.00,VWS V14.01,2013-07-10 16:15:00,
2013-07-10 11:20:00,84.2,69.3,30.00,South,184,6.0,11.0,61,0.00,,SKC,0.00,VWS V14.01,2013-07-10 16:20:00,
2013-07-10 11:25:00,84.0,68.1,30.00,SSE,159,4.0,11.0,59,0.00,,SKC,0.00,VWS V14.01,2013-07-10 16:25:00,
2013-07-10 11:30:00,84.3,69.4,30.00,SW,221,4.0,9.0,61,0.00,,SKC,0.00,VWS V14.01,2013-07-10 16:30:00,
2013-07-10 11:35:00,85.2,68.8,30.00,SSW,207,10.0,15.0,58,0.00,,SKC,0.00,VWS V14.01,2013-07-10 16:35:00,
2013-07-10 11:40:00,84.7,68.3,30.00,South,172,8.0,9.0,58,0.00,,SKC,0.00,VWS V14.01,2013-07-10 16:40:00,
2013-07-10 11:45:00,84.6,68.7,30.00,SSE,162,9.0,9.0,59,0.00,,SKC,0.00,VWS V14.01,2013-07-10 16:45:00,
2013-07-10 11:50:00,84.8,68.9,30.00,ESE,107,2.0,3.0,59,0.00,,SKC,0.00,VWS V14.01,2013-07-10 16:50:00,
2013-07-10 11:55:00,85.6,68.6,30.00,SSW,209,10.0,12.0,57,0.00,,SKC,0.00,VWS V14.01,2013-07-10 16:55:00,
2013-07-10 12:00:00,85.7,67.7,30.00,SSE,164,5.0,12.0,55,0.00,,SKC,0.00,VWS V14.01,2013-07-10 17:00:00,
2013-07-10 12:05:00,85.8,68.3,30.00,South,180,5.0,10.0,56,0.00,,SKC,0.00,VWS V14.01,2013-07-10 17:05:00,
2013-07-10 12:10:00,86.0,68.5,30.00,SSW,196,2.0,5.0,56,0.00,,SKC,0.00,VWS V14.01,2013-07-10 17:10:00,
2013-07-10 12:15:00,86.4,67.8,30.00,South,187,5.0,13.0,54,0.00,,SKC,0.00,VWS V14.01,2013-07-10 17:15:00,
2013-07-10 12:20:00,86.5,67.9,30.00,SSE,157,9.0,14.0,54,0.00,,SKC,0.00,VWS V14.01,2013-07-10 17:20:00,
2013-07-10 12:25:00,86.4,67.8,30.00,SE,146,4.0,7.0,54,0.00,,SKC,0.00,VWS V14.01,2013-07-10 17:25:00,
2013-07-10 12:30:00,86.5,67.9,30.00,South,175,6.0,9.0,54,0.00,,SKC,0.00,VWS V14.01,2013-07-10 17:30:00,
2013-07-10 12:35:00,86.8,68.2,29.99,SSE,147,5.0,13.0,54,0.00,,SKC,0.00,VWS V14.01,2013-07-10 17:35:00,
2013-07-10 12:40:00,87.4,68.7,29.99,WSW,245,3.0,4.0,54,0.00,,SKC,0.00,VWS V14.01,2013-07-10 17:40:00,
2013-07-10 12:45:00,87.8,66.9,29.99,SSW,210,8.0,14.0,50,0.00,,SKC,0.00,VWS V14.01,2013-07-10 17:45:00,
2013-07-10 12:50:00,87.4,67.6,29.99,South,187,3.0,11.0,52,0.00,,SKC,0.00,VWS V14.01,2013-07-10 17:50:00,
2013-07-10 12:55:00,87.7,67.9,29.99,SSW,197,8.0,9.0,52,0.00,,SKC,0.00,VWS V14.01,2013-07-10 17:55:00,
2013-07-10 13:00:00,88.1,67.7,29.99,SSW,200,1.0,6.0,51,0.00,,SKC,0.00,VWS V14.01,2013-07-10 18:00:00,
2013-07-10 13:05:00,88.3,67.3,29.98,SSW,207,1.0,1.0,50,0.00,,SKC,0.00,VWS V14.01,2013-07-10 18:05:00,
2013-07-10 13:10:00,88.3,66.7,29.98,SSW,203,15.0,16.0,49,0.00,,SKC,0.00,VWS V14.01,2013-07-10 18:10:00,
2013-07-10 13:15:00,88.6,67.0,29.98,South,175,6.0,9.0,49,0.00,,SKC,0.00,VWS V14.01,2013-07-10 18:15:00,
2013-07-10 13:20:00,89.0,66.8,29.97,SSE,158,9.0,10.0,48,0.00,,SKC,0.00,VWS V14.01,2013-07-10 18:20:00,
2013-07-10 13:25:00,89.2,66.3,29.97,South,177,4.0,5.0,47,0.00,,SKC,0.00,VWS V14.01,2013-07-10 18:25:00,
2013-07-10 13:30:00,90.2,67.3,29.97,SSW,202,4.0,7.0,47,0.00,,SKC,0.00,VWS V14.01,2013-07-10 18:30:00,
2013-07-10 13:35:00,90.1,67.2,29.97,South,173,6.0,15.0,47,0.00,,SKC,0.00,VWS V14.01,2013-07-10 18:35:00,
2013-07-10 13:40:00,90.1,67.2,29.97,South,172,5.0,6.0,47,0.00,,SKC,0.00,VWS V14.01,2013-07-10 18:40:00,
2013-07-10 13:46:00,90.3,67.3,29.96,South,172,6.0,6.0,47,0.00,,SKC,0.00,VWS V14.01,2013-07-10 18:46:00,
2013-07-10 13:51:00,90.5,64.3,29.96,SSW,194,5.0,10.0,42,0.00,,SKC,0.00,VWS V14.01,2013-07-10 18:51:00,
2013-07-10 13:56:00,90.7,64.5,29.96,SE,137,6.0,7.0,42,0.00,,SKC,0.00,VWS V14.01,2013-07-10 18:56:00,
2013-07-10 14:01:00,91.3,65.7,29.95,SE,142,8.0,10.0,43,0.00,,SKC,0.00,VWS V14.01,2013-07-10 19:01:00,
2013-07-10 14:06:00,91.2,64.9,29.95,SSW,207,6.0,9.0,42,0.00,,SKC,0.00,VWS V14.01,2013-07-10 19:06:00,
2013-07-10 14:11:00,91.6,63.2,29.95,SE,133,7.0,11.0,39,0.00,,SKC,0.00,VWS V14.01,2013-07-10 19:11:00,
2013-07-10 14:16:00,91.8,64.8,29.95,ESE,119,2.0,3.0,41,0.00,,SKC,0.00,VWS V14.01,2013-07-10 19:16:00,
2013-07-10 14:21:00,92.8,65.7,29.94,SSE,165,5.0,7.0,41,0.00,,SKC,0.00,VWS V14.01,2013-07-10 19:21:00,
2013-07-10 14:26:00,92.6,64.8,29.94,South,181,6.0,6.0,40,0.00,,SKC,0.00,VWS V14.01,2013-07-10 19:26:00,
2013-07-10 14:31:00,92.5,64.7,29.94,SSE,160,5.0,7.0,40,0.00,,SKC,0.00,VWS V14.01,2013-07-10 19:31:00,
2013-07-10 14:36:00,92.5,64.0,29.94,South,178,3.0,4.0,39,0.00,,SKC,0.00,VWS V14.01,2013-07-10 19:36:00,
2013-07-10 14:41:00,92.8,64.2,29.94,SSE,161,5.0,11.0,39,0.00,,SKC,0.00,VWS V14.01,2013-07-10 19:41:00,
2013-07-10 14:46:00,93.5,63.3,29.94,SE,144,3.0,5.0,37,0.00,,SKC,0.00,VWS V14.01,2013-07-10 19:46:00,
2013-07-10 14:51:00,93.3,62.4,29.94,South,172,3.0,3.0,36,0.00,,SKC,0.00,VWS V14.01,2013-07-10 19:51:00,
2013-07-10 14:56:00,93.3,63.9,29.93,SSE,159,1.0,6.0,38,0.00,,SKC,0.00,VWS V14.01,2013-07-10 19:56:00,
2013-07-10 15:01:00,93.5,61.8,29.93,SSE,149,5.0,9.0,35,0.00,,SKC,0.00,VWS V14.01,2013-07-10 20:01:00,
2013-07-10 15:06:00,94.0,63.8,29.93,ESE,114,6.0,8.0,37,0.00,,SKC,0.00,VWS V14.01,2013-07-10 20:06:00,
2013-07-10 15:11:00,93.8,64.4,29.93,SE,125,3.0,3.0,38,0.00,,SKC,0.00,VWS V14.01,2013-07-10 20:11:00,
2013-07-10 15:16:00,94.0,63.8,29.93,SSW,202,6.0,7.0,37,0.00,,SKC,0.00,VWS V14.01,2013-07-10 20:16:00,
2013-07-10 15:21:00,93.8,63.6,29.92,SSW,198,2.0,5.0,37,0.00,,SKC,0.00,VWS V14.01,2013-07-10 20:21:00,
2013-07-10 15:26:00,94.0,64.6,29.92,SSW,210,4.0,7.0,38,0.00,,SKC,0.00,VWS V14.01,2013-07-10 20:26:00,
2013-07-10 15:31:00,93.6,62.7,29.92,South,176,5.0,5.0,36,0.00,,SKC,0.00,VWS V14.01,2013-07-10 20:31:00,
2013-07-10 15:36:00,93.8,62.8,29.92,ESE,106,3.0,4.0,36,0.00,,SKC,0.00,VWS V14.01,2013-07-10 20:36:00,
2013-07-10 15:41:00,94.0,62.2,29.92,SE,146,5.0,8.0,35,0.00,,SKC,0.00,VWS V14.01,2013-07-10 20:41:00,
2013-07-10 15:46:00,94.0,62.2,29.92,SSE,157,6.0,10.0,35,0.00,,SKC,0.00,VWS V14.01,2013-07-10 20:46:00,
2013-07-10 15:51:00,94.2,60.7,29.92,ESE,109,9.0,13.0,33,0.00,,SKC,0.00,VWS V14.01,2013-07-10 20:51:00,
2013-07-10 15:56:00,93.7,61.1,29.92,ESE,105,4.0,7.0,34,0.00,,SKC,0.00,VWS V14.01,2013-07-10 20:56:00,
2013-07-10 16:01:00,94.0,61.4,29.92,East,92,0.0,2.0,34,0.00,,SKC,0.00,VWS V14.01,2013-07-10 21:01:00,
2013-07-10 16:06:00,94.4,60.9,29.91,South,171,12.0,12.0,33,0.00,,SKC,0.00,VWS V14.01,2013-07-10 21:06:00,
2013-07-10 16:11:00,94.2,59.0,29.92,SSW,211,5.0,5.0,31,0.00,,SKC,0.00,VWS V14.01,2013-07-10 21:11:00,
2013-07-10 16:16:00,94.5,59.2,29.92,South,182,6.0,7.0,31,0.00,,SKC,0.00,VWS V14.01,2013-07-10 21:16:00,
2013-07-10 16:21:00,94.8,60.4,29.92,South,180,11.0,12.0,32,0.00,,SKC,0.00,VWS V14.01,2013-07-10 21:21:00,
2013-07-10 16:26:00,94.1,61.5,29.91,South,182,1.0,4.0,34,0.00,,SKC,0.00,VWS V14.01,2013-07-10 21:26:00,
2013-07-10 16:31:00,94.7,62.8,29.90,SSW,201,6.0,12.0,35,0.00,,SKC,0.00,VWS V14.01,2013-07-10 21:31:00,
2013-07-10 16:36:00,94.5,61.0,29.90,South,188,1.0,5.0,33,0.00,,SKC,0.00,VWS V14.01,2013-07-10 21:36:00,
2013-07-10 16:41:00,94.4,63.4,29.90,SE,134,5.0,10.0,36,0.00,,SKC,0.00,VWS V14.01,2013-07-10 21:41:00,
2013-07-10 16:46:00,94.4,64.1,29.90,ENE,71,2.0,6.0,37,0.00,,SKC,0.00,VWS V14.01,2013-07-10 21:46:00,
2013-07-10 16:51:00,94.5,63.4,29.90,South,169,9.0,9.0,36,0.00,,SKC,0.00,VWS V14.01,2013-07-10 21:51:00,
2013-07-10 16:56:00,94.2,63.2,29.90,SSE,152,10.0,15.0,36,0.00,,SKC,0.00,VWS V14.01,2013-07-10 21:56:00,
2013-07-10 17:01:00,93.8,62.8,29.90,SE,133,2.0,7.0,36,0.00,,SKC,0.00,VWS V14.01,2013-07-10 22:01:00,
2013-07-10 17:26:00,94.2,62.4,29.89,SE,134,4.0,9.0,35,0.00,,SKC,0.00,VWS V14.01,2013-07-10 22:26:00,
2013-07-10 17:31:00,93.8,61.2,29.89,SE,131,2.0,9.0,34,0.00,,SKC,0.00,VWS V14.01,2013-07-10 22:31:00,
2013-07-10 17:36:00,93.5,61.8,29.89,East,98,2.0,4.0,35,0.00,,SKC,0.00,VWS V14.01,2013-07-10 22:36:00,
2013-07-10 17:41:00,93.7,61.1,29.89,SE,136,5.0,9.0,34,0.00,,SKC,0.00,VWS V14.01,2013-07-10 22:41:00,
2013-07-10 17:46:00,93.8,60.4,29.89,SE,124,3.0,5.0,33,0.00,,SKC,0.00,VWS V14.01,2013-07-10 22:46:00,
2013-07-10 17:51:00,93.4,60.9,29.88,SSE,165,5.0,9.0,34,0.00,,SKC,0.00,VWS V14.01,2013-07-10 22:51:00,
2013-07-10 17:56:00,93.2,61.5,29.88,SSE,167,14.0,14.0,35,0.00,,SKC,0.00,VWS V14.01,2013-07-10 22:56:00,
2013-07-10 18:01:00,93.5,61.8,29.88,South,181,9.0,9.0,35,0.00,,SKC,0.00,VWS V14.01,2013-07-10 23:01:00,
2013-07-10 18:06:00,93.4,62.5,29.88,East,92,1.0,6.0,36,0.00,,SKC,0.00,VWS V14.01,2013-07-10 23:06:00,
2013-07-10 18:11:00,93.2,62.3,29.87,South,190,6.0,12.0,36,0.00,,SKC,0.00,VWS V14.01,2013-07-10 23:11:00,
2013-07-10 18:16:00,92.5,61.7,29.87,SSE,165,4.0,12.0,36,0.00,,SKC,0.00,VWS V14.01,2013-07-10 23:16:00,
2013-07-10 18:21:00,92.4,63.1,29.87,SSE,164,3.0,15.0,38,0.00,,SKC,0.00,VWS V14.01,2013-07-10 23:21:00,
2013-07-10 18:26:00,92.0,62.8,29.87,South,191,5.0,8.0,38,0.00,,SKC,0.00,VWS V14.01,2013-07-10 23:26:00,
2013-07-10 18:31:00,91.5,62.3,29.87,South,180,4.0,4.0,38,0.00,,SKC,0.00,VWS V14.01,2013-07-10 23:31:00,
2013-07-10 18:36:00,91.4,63.0,29.87,South,178,3.0,6.0,39,0.00,,SKC,0.00,VWS V14.01,2013-07-10 23:36:00,
2013-07-10 18:41:00,91.2,63.5,29.86,SSE,156,3.0,10.0,40,0.00,,SKC,0.00,VWS V14.01,2013-07-10 23:41:00,
2013-07-10 18:46:00,91.1,64.1,29.86,SSE,164,7.0,7.0,41,0.00,,SKC,0.00,VWS V14.01,2013-07-10 23:46:00,
2013-07-10 18:51:00,91.4,63.7,29.86,SSE,152,4.0,5.0,40,0.00,,SKC,0.00,VWS V14.01,2013-07-10 23:51:00,
2013-07-10 18:56:00,91.3,64.3,29.86,SSE,163,6.0,9.0,41,0.00,,SKC,0.00,VWS V14.01,2013-07-10 23:56:00,
2013-07-10 19:01:00,91.2,64.2,29.86,SSE,165,4.0,6.0,41,0.00,,SKC,0.00,VWS V14.01,2013-07-11 00:01:00,
2013-07-10 19:06:00,90.8,64.6,29.86,SSE,161,4.0,11.0,42,0.00,,SKC,0.00,VWS V14.01,2013-07-11 00:06:00,
2013-07-10 19:11:00,90.8,64.6,29.86,SSE,152,6.0,7.0,42,0.00,,SKC,0.00,VWS V14.01,2013-07-11 00:11:00,
2013-07-10 19:16:00,90.9,64.7,29.86,SSW,194,6.0,10.0,42,0.00,,SKC,0.00,VWS V14.01,2013-07-11 00:16:00,
2013-07-10 19:21:00,90.6,64.4,29.85,SE,134,5.0,11.0,42,0.00,,SKC,0.00,VWS V14.01,2013-07-11 00:21:00,
2013-07-10 19:26:00,90.5,64.3,29.86,South,180,9.0,12.0,42,0.00,,SKC,0.00,VWS V14.01,2013-07-11 00:26:00,
2013-07-10 19:31:00,89.9,64.4,29.86,South,177,6.0,7.0,43,0.00,,SKC,0.00,VWS V14.01,2013-07-11 00:31:00,
2013-07-10 19:36:00,89.6,64.8,29.86,SSE,148,6.0,9.0,44,0.00,,SKC,0.00,VWS V14.01,2013-07-11 00:36:00,
2013-07-10 19:41:00,89.5,64.7,29.86,SE,132,6.0,11.0,44,0.00,,SKC,0.00,VWS V14.01,2013-07-11 00:41:00,
2013-07-10 19:46:00,89.3,64.6,29.86,South,175,6.0,11.0,44,0.00,,SKC,0.00,VWS V14.01,2013-07-11 00:46:00,
2013-07-10 19:51:00,88.9,64.2,29.86,South,184,4.0,9.0,44,0.00,,SKC,0.00,VWS V14.01,2013-07-11 00:51:00,
2013-07-10 19:56:00,88.8,64.1,29.86,SSE,157,5.0,9.0,44,0.00,,SKC,0.00,VWS V14.01,2013-07-11 00:56:00,
2013-07-10 20:02:00,88.6,64.6,29.86,SSE,157,4.0,9.0,45,0.00,,SKC,0.00,VWS V14.01,2013-07-11 01:02:00,
2013-07-10 20:06:00,88.3,64.3,29.86,SSE,161,5.0,7.0,45,0.00,,SKC,0.00,VWS V14.01,2013-07-11 01:06:00,
2013-07-10 20:12:00,88.0,64.0,29.86,SSE,167,3.0,6.0,45,0.00,,SKC,0.00,VWS V14.01,2013-07-11 01:12:00,
2013-07-10 20:17:00,87.7,63.8,29.86,SSE,167,4.0,4.0,45,0.00,,SKC,0.00,VWS V14.01,2013-07-11 01:17:00,
2013-07-10 20:22:00,87.4,63.5,29.86,SSE,151,4.0,4.0,45,0.00,,SKC,0.00,VWS V14.01,2013-07-11 01:22:00,
2013-07-10 20:27:00,87.3,63.4,29.86,South,173,5.0,7.0,45,0.00,,SKC,0.00,VWS V14.01,2013-07-11 01:27:00,
2013-07-10 20:32:00,87.1,63.2,29.87,SSE,147,6.0,6.0,45,0.00,,SKC,0.00,VWS V14.01,2013-07-11 01:32:00,
2013-07-10 20:37:00,86.9,63.7,29.87,SSE,167,5.0,7.0,46,0.00,,SKC,0.00,VWS V14.01,2013-07-11 01:37:00,
2013-07-10 20:42:00,86.6,63.4,29.87,SSE,161,5.0,5.0,46,0.00,,SKC,0.00,VWS V14.01,2013-07-11 01:42:00,
2013-07-10 20:47:00,86.3,63.7,29.87,SSE,165,1.0,1.0,47,0.00,,SKC,0.00,VWS V14.01,2013-07-11 01:47:00,
2013-07-10 20:52:00,86.1,63.5,29.87,SE,134,6.0,6.0,47,0.00,,SKC,0.00,VWS V14.01,2013-07-11 01:52:00,
2013-07-10 20:57:00,85.9,64.0,29.87,SSE,157,2.0,2.0,48,0.00,,SKC,0.00,VWS V14.01,2013-07-11 01:57:00,
2013-07-10 21:02:00,85.6,63.7,29.87,SSE,160,1.0,5.0,48,0.00,,SKC,0.00,VWS V14.01,2013-07-11 02:02:00,
2013-07-10 21:07:00,85.3,63.4,29.87,SSE,161,2.0,2.0,48,0.00,,SKC,0.00,VWS V14.01,2013-07-11 02:07:00,
2013-07-10 21:11:00,85.0,63.7,29.87,SSE,161,3.0,3.0,49,0.00,,SKC,0.00,VWS V14.01,2013-07-11 02:11:00,
2013-07-10 21:17:00,84.7,63.5,29.86,SSE,160,1.0,1.0,49,0.00,,SKC,0.00,VWS V14.01,2013-07-11 02:17:00,
2013-07-10 21:22:00,84.5,63.3,29.86,SSE,160,0.0,2.0,49,0.00,,SKC,0.00,VWS V14.01,2013-07-11 02:22:00,
2013-07-10 21:27:00,84.3,63.7,29.86,SSE,160,2.0,2.0,50,0.00,,SKC,0.00,VWS V14.01,2013-07-11 02:27:00,
2013-07-10 21:32:00,84.1,63.5,29.87,SSE,160,1.0,3.0,50,0.00,,SKC,0.00,VWS V14.01,2013-07-11 02:32:00,
2013-07-10 21:37:00,83.9,63.3,29.87,SSE,161,0.0,1.0,50,0.00,,SKC,0.00,VWS V14.01,2013-07-11 02:37:00,
2013-07-10 21:42:00,83.6,63.6,29.87,SSE,161,1.0,2.0,51,0.00,,SKC,0.00,VWS V14.01,2013-07-11 02:42:00,
2013-07-10 21:47:00,83.4,63.4,29.87,SSE,161,1.0,1.0,51,0.00,,SKC,0.00,VWS V14.01,2013-07-11 02:47:00,
2013-07-10 21:52:00,83.2,63.2,29.87,SSE,160,1.0,2.0,51,0.00,,SKC,0.00,VWS V14.01,2013-07-11 02:52:00,
2013-07-10 21:57:00,83.1,63.1,29.87,SSE,160,2.0,2.0,51,0.00,,SKC,0.00,VWS V14.01,2013-07-11 02:57:00,
2013-07-10 22:02:00,83.1,63.1,29.87,SSE,161,2.0,2.0,51,0.00,,SKC,0.00,VWS V14.01,2013-07-11 03:02:00,
2013-07-10 22:07:00,83.0,63.0,29.88,SSE,160,1.0,1.0,51,0.00,,SKC,0.00,VWS V14.01,2013-07-11 03:07:00,
2013-07-10 22:12:00,82.9,63.5,29.88,SSE,160,3.0,3.0,52,0.00,,SKC,0.00,VWS V14.01,2013-07-11 03:12:00,
2013-07-10 22:17:00,82.7,63.3,29.88,SSE,160,1.0,2.0,52,0.00,,SKC,0.00,VWS V14.01,2013-07-11 03:17:00,
2013-07-10 22:22:00,82.6,63.2,29.88,SSE,160,2.0,2.0,52,0.00,,SKC,0.00,VWS V14.01,2013-07-11 03:22:00,
2013-07-10 22:27:00,82.5,63.1,29.89,SSE,150,1.0,3.0,52,0.00,,SKC,0.00,VWS V14.01,2013-07-11 03:27:00,
2013-07-10 22:32:00,82.3,63.5,29.90,SE,139,9.0,9.0,53,0.00,,SKC,0.00,VWS V14.01,2013-07-11 03:32:00,
2013-07-10 22:37:00,82.0,64.3,29.90,SSE,168,5.0,5.0,55,0.00,,SKC,0.00,VWS V14.01,2013-07-11 03:37:00,
2013-07-10 22:42:00,81.8,65.1,29.90,SSE,159,7.0,7.0,57,0.00,,SKC,0.00,VWS V14.01,2013-07-11 03:42:00,
2013-07-10 22:47:00,81.6,65.4,29.90,SSE,163,7.0,7.0,58,0.00,,SKC,0.00,VWS V14.01,2013-07-11 03:47:00,
2013-07-10 22:52:00,81.4,65.2,29.90,SSE,156,5.0,6.0,58,0.00,,SKC,0.00,VWS V14.01,2013-07-11 03:52:00,
2013-07-10 22:57:00,81.1,65.4,29.90,South,175,4.0,5.0,59,0.00,,SKC,0.00,VWS V14.01,2013-07-11 03:57:00,
2013-07-10 23:01:00,81.0,65.8,29.90,South,188,5.0,5.0,60,0.00,,SKC,0.00,VWS V14.01,2013-07-11 04:01:00,
2013-07-10 23:02:00,80.9,65.7,29.90,South,182,2.0,3.0,60,0.00,,SKC,0.00,VWS V14.01,2013-07-11 04:02:00,
2013-07-10 23:07:00,80.9,66.2,29.90,South,183,10.0,11.0,61,0.00,,SKC,0.00,VWS V14.01,2013-07-11 04:07:00,
2013-07-10 23:12:00,80.8,66.6,29.91,South,180,5.0,11.0,62,0.00,,SKC,0.00,VWS V14.01,2013-07-11 04:12:00,
2013-07-10 23:16:00,80.7,66.9,29.91,South,178,5.0,6.0,63,0.00,,SKC,0.00,VWS V14.01,2013-07-11 04:16:00,
2013-07-10 23:21:00,80.5,67.2,29.91,SSE,155,6.0,9.0,64,0.00,,SKC,0.00,VWS V14.01,2013-07-11 04:21:00,
2013-07-10 23:27:00,80.4,67.6,29.91,South,170,4.0,9.0,65,0.00,,SKC,0.00,VWS V14.01,2013-07-11 04:27:00,
2013-07-10 23:32:00,80.3,67.5,29.91,SSE,164,3.0,7.0,65,0.00,,SKC,0.00,VWS V14.01,2013-07-11 04:32:00,
2013-07-10 23:37:00,80.1,67.7,29.91,South,188,5.0,9.0,66,0.00,,SKC,0.00,VWS V14.01,2013-07-11 04:37:00,
2013-07-10 23:42:00,80.0,67.6,29.91,South,182,4.0,6.0,66,0.00,,SKC,0.00,VWS V14.01,2013-07-11 04:42:00,
2013-07-10 23:46:00,79.9,68.0,29.91,South,185,7.0,8.0,67,0.00,,SKC,0.00,VWS V14.01,2013-07-11 04:46:00,
2013-07-10 23:51:00,79.8,67.9,29.91,South,182,4.0,8.0,67,0.00,,SKC,0.00,VWS V14.01,2013-07-11 04:51:00,
2013-07-10 23:56:00,79.8,67.9,29.91,South,178,3.0,11.0,67,0.00,,SKC,0.00,VWS V14.01,2013-07-11 04:56:00,